LGL651F ELLX-LIRF

Flight info

Callsign LGL651F
Flight time 1h 28m
Altitude 39000
Route GTQ DCT DEVDI DCT ODINA DCT EKPAL DCT TINKU DCT XIBIL
Aircraft B737/M-SDE2E3FGHIRWXY/LB1

Departure

Time 2026-05-06 09:54
Airport Luxembourg-Findel International Airport (ELLX)

Arrival

Time 2026-05-06 11:22
Airport Rome–Fiumicino Leonardo da Vinci International Airport (LIRF)
Time Latitude Longitude Altitude Speed Heading
2026-05-06 09:17 49.63208 6.21340 1229 ft 0 kts 60°
2026-05-06 09:42 49.63206 6.21336 1229 ft 3 kts 60°
2026-05-06 09:42 49.63193 6.21302 1229 ft 2 kts 60°
2026-05-06 09:42 49.63186 6.21278 1230 ft 4 kts 120°
2026-05-06 09:43 49.63204 6.21256 1231 ft 4 kts 150°
2026-05-06 09:43 49.63213 6.21247 1230 ft 1 kts 150°
2026-05-06 09:47 49.63203 6.21257 1223 ft 5 kts 150°
2026-05-06 09:47 49.63154 6.21299 1230 ft 11 kts 150°
2026-05-06 09:47 49.63077 6.21367 1230 ft 13 kts 150°
2026-05-06 09:48 49.63011 6.21400 1227 ft 8 kts 203°
2026-05-06 09:48 49.62979 6.21329 1229 ft 8 kts 244°
2026-05-06 09:48 49.62955 6.21252 1231 ft 8 kts 244°
2026-05-06 09:48 49.62930 6.21173 1232 ft 9 kts 244°
2026-05-06 09:49 49.62898 6.21068 1232 ft 13 kts 244°
2026-05-06 09:49 49.62852 6.20922 1239 ft 16 kts 244°
2026-05-06 09:49 49.62801 6.20765 1237 ft 18 kts 236°
2026-05-06 09:49 49.62702 6.20627 1245 ft 21 kts 216°
2026-05-06 09:50 49.62599 6.20467 1245 ft 22 kts 229°
2026-05-06 09:50 49.62499 6.20282 1226 ft 24 kts 235°
2026-05-06 09:50 49.62411 6.20050 1213 ft 26 kts 240°
2026-05-06 09:50 49.62338 6.19854 1201 ft 20 kts 240°
2026-05-06 09:51 49.62262 6.19648 1189 ft 24 kts 240°
2026-05-06 09:51 49.62174 6.19414 1176 ft 25 kts 240°
2026-05-06 09:51 49.62100 6.19214 1169 ft 21 kts 240°
2026-05-06 09:51 49.62025 6.19013 1162 ft 22 kts 240°
2026-05-06 09:52 49.61952 6.18826 1155 ft 16 kts 230°
2026-05-06 09:52 49.61873 6.18725 1155 ft 12 kts 216°
2026-05-06 09:52 49.61797 6.18729 1156 ft 12 kts 150°
2026-05-06 09:52 49.61775 6.18814 1160 ft 9 kts 63°
2026-05-06 09:53 49.61805 6.18895 1162 ft 9 kts 60°
2026-05-06 09:53 49.61894 6.19134 1166 ft 57 kts 60°
2026-05-06 09:53 49.62192 6.19936 1209 ft 117 kts 60°
2026-05-06 09:53 49.62681 6.21261 1274 ft 163 kts 59°
2026-05-06 09:54 49.63229 6.22790 1891 ft 165 kts 58°
2026-05-06 09:54 49.63827 6.24348 2558 ft 177 kts 57°
2026-05-06 09:54 49.64517 6.26158 2813 ft 211 kts 63°
2026-05-06 09:54 49.64780 6.28471 3052 ft 236 kts 103°
2026-05-06 09:55 49.63920 6.30713 3365 ft 255 kts 144°
2026-05-06 09:55 49.62433 6.32253 4044 ft 262 kts 149°
2026-05-06 09:55 49.60928 6.33828 4991 ft 262 kts 147°
2026-05-06 09:55 49.59431 6.35498 5797 ft 269 kts 146°
2026-05-06 09:56 49.57922 6.37243 6661 ft 273 kts 145°
2026-05-06 09:56 49.56401 6.39028 7532 ft 278 kts 146°
2026-05-06 09:56 49.54768 6.40624 8440 ft 278 kts 158°
2026-05-06 09:56 49.53598 6.41434 9110 ft 278 kts 160°
2026-05-06 09:57 49.51806 6.42606 10032 ft 282 kts 160°
2026-05-06 09:57 49.49931 6.43848 10409 ft 307 kts 159°
2026-05-06 09:57 49.47899 6.45224 10785 ft 327 kts 158°
2026-05-06 09:57 49.45797 6.46672 11658 ft 333 kts 158°
2026-05-06 09:58 49.43671 6.48146 12643 ft 337 kts 158°
2026-05-06 09:58 49.41523 6.49634 13582 ft 342 kts 158°
2026-05-06 09:58 49.39325 6.51154 14402 ft 348 kts 157°
2026-05-06 09:58 49.37099 6.52692 15296 ft 351 kts 158°
2026-05-06 09:59 49.34870 6.54233 16247 ft 352 kts 158°
2026-05-06 09:59 49.32621 6.55783 17073 ft 357 kts 157°
2026-05-06 09:59 49.30339 6.57357 17952 ft 360 kts 157°
2026-05-06 09:59 49.28071 6.58919 18736 ft 364 kts 157°
2026-05-06 10:00 49.25745 6.60518 19430 ft 369 kts 157°
2026-05-06 10:00 49.23389 6.62130 20186 ft 372 kts 158°
2026-05-06 10:00 49.20936 6.63436 20878 ft 376 kts 166°
2026-05-06 10:00 49.18383 6.64403 21587 ft 380 kts 168°
2026-05-06 10:01 49.15795 6.65284 22353 ft 381 kts 169°
2026-05-06 10:01 49.13198 6.66175 23101 ft 384 kts 168°
2026-05-06 10:01 49.10576 6.67110 23701 ft 389 kts 168°
2026-05-06 10:01 49.07950 6.68078 24382 ft 388 kts 167°
2026-05-06 10:02 49.05324 6.69064 25098 ft 388 kts 167°
2026-05-06 10:02 49.02701 6.70054 25761 ft 389 kts 167°
2026-05-06 10:02 49.00101 6.71033 26365 ft 390 kts 167°
2026-05-06 10:02 48.97486 6.72174 26951 ft 393 kts 161°
2026-05-06 10:03 48.94950 6.73779 27550 ft 395 kts 158°
2026-05-06 10:03 48.92446 6.75526 28142 ft 397 kts 157°
2026-05-06 10:03 48.89944 6.77316 28694 ft 398 kts 157°
2026-05-06 10:03 48.87419 6.79115 29254 ft 400 kts 157°
2026-05-06 10:04 48.84884 6.80898 29732 ft 403 kts 157°
2026-05-06 10:04 48.82330 6.82672 30137 ft 405 kts 158°
2026-05-06 10:04 48.79751 6.84446 30441 ft 409 kts 158°
2026-05-06 10:04 48.77171 6.86207 30712 ft 414 kts 158°
2026-05-06 10:05 48.74534 6.88000 31003 ft 417 kts 158°
2026-05-06 10:05 48.71878 6.89801 31393 ft 418 kts 158°
2026-05-06 10:05 48.69226 6.91597 31818 ft 418 kts 158°
2026-05-06 10:05 48.66564 6.93397 32183 ft 419 kts 158°
2026-05-06 10:06 48.63891 6.95202 32525 ft 421 kts 158°
2026-05-06 10:06 48.61212 6.97008 32855 ft 423 kts 159°
2026-05-06 10:06 48.58521 6.98821 33192 ft 424 kts 159°
2026-05-06 10:06 48.55824 7.00637 33575 ft 424 kts 159°
2026-05-06 10:07 48.53126 7.02451 33915 ft 425 kts 159°
2026-05-06 10:07 48.50420 7.04269 34189 ft 426 kts 159°
2026-05-06 10:07 48.47713 7.06085 34474 ft 426 kts 159°
2026-05-06 10:07 48.45035 7.07879 34754 ft 427 kts 159°
2026-05-06 10:08 48.42315 7.09700 35042 ft 427 kts 159°
2026-05-06 10:08 48.39600 7.11514 35356 ft 427 kts 159°
2026-05-06 10:08 48.36885 7.13328 35636 ft 427 kts 159°
2026-05-06 10:08 48.34162 7.15143 35886 ft 428 kts 159°
2026-05-06 10:09 48.31435 7.16959 36139 ft 429 kts 159°
2026-05-06 10:09 48.28709 7.18773 36414 ft 429 kts 159°
2026-05-06 10:09 48.25979 7.20587 36670 ft 430 kts 159°
2026-05-06 10:09 48.23236 7.22408 36871 ft 431 kts 159°
2026-05-06 10:10 48.20493 7.24226 37098 ft 431 kts 160°
2026-05-06 10:10 48.17763 7.26036 37598 ft 424 kts 160°
2026-05-06 10:10 48.15068 7.27821 37968 ft 422 kts 160°
2026-05-06 10:10 48.12389 7.29592 38277 ft 421 kts 160°
2026-05-06 10:11 48.09737 7.31340 38421 ft 423 kts 160°
2026-05-06 10:11 48.07040 7.33116 38556 ft 424 kts 160°
2026-05-06 10:11 48.04336 7.34895 38741 ft 424 kts 160°
2026-05-06 10:11 48.01627 7.36676 38793 ft 427 kts 160°
2026-05-06 10:12 47.96170 7.40259 38804 ft 427 kts 160°
2026-05-06 10:12 47.90773 7.43798 38802 ft 420 kts 160°
2026-05-06 10:13 47.85429 7.47290 38813 ft 418 kts 160°
2026-05-06 10:13 47.80111 7.50758 38828 ft 417 kts 160°
2026-05-06 10:14 47.74839 7.54188 38829 ft 416 kts 160°
2026-05-06 10:14 47.69573 7.57760 38814 ft 417 kts 158°
2026-05-06 10:15 47.64324 7.61493 38828 ft 419 kts 158°
2026-05-06 10:15 47.59048 7.65238 38837 ft 421 kts 158°
2026-05-06 10:16 47.53778 7.68949 38832 ft 423 kts 158°
2026-05-06 10:16 47.48440 7.72688 38837 ft 426 kts 158°
2026-05-06 10:17 47.43063 7.76443 38839 ft 428 kts 158°
2026-05-06 10:17 47.37661 7.80208 38837 ft 430 kts 158°
2026-05-06 10:18 47.32244 7.83974 38829 ft 431 kts 158°
2026-05-06 10:18 47.26816 7.87740 38834 ft 431 kts 158°
2026-05-06 10:19 47.21386 7.91498 38837 ft 431 kts 158°
2026-05-06 10:19 47.15950 7.95252 38834 ft 431 kts 158°
2026-05-06 10:20 47.10526 7.98990 38824 ft 430 kts 159°
2026-05-06 10:20 47.05097 8.02721 38831 ft 430 kts 159°
2026-05-06 10:21 46.99707 8.06419 38829 ft 430 kts 159°
2026-05-06 10:21 46.94277 8.10134 38832 ft 431 kts 159°
2026-05-06 10:22 46.88843 8.13844 38837 ft 431 kts 160°
2026-05-06 10:22 46.83396 8.17554 38816 ft 432 kts 160°
2026-05-06 10:23 46.77938 8.21264 38828 ft 433 kts 160°
2026-05-06 10:23 46.72502 8.24951 38843 ft 434 kts 160°
2026-05-06 10:24 46.67015 8.28664 38855 ft 436 kts 160°
2026-05-06 10:24 46.61513 8.32378 38842 ft 436 kts 160°
2026-05-06 10:25 46.56015 8.36084 38832 ft 435 kts 160°
2026-05-06 10:25 46.50538 8.39767 38835 ft 432 kts 160°
2026-05-06 10:26 46.45088 8.43420 38854 ft 431 kts 160°
2026-05-06 10:26 46.39663 8.47051 38856 ft 434 kts 161°
2026-05-06 10:27 46.34173 8.50710 38834 ft 433 kts 161°
2026-05-06 10:27 46.28730 8.54343 38856 ft 429 kts 160°
2026-05-06 10:28 46.23307 8.57950 38856 ft 427 kts 161°
2026-05-06 10:28 46.17927 8.61519 38847 ft 424 kts 161°
2026-05-06 10:29 46.12572 8.65064 38871 ft 423 kts 161°
2026-05-06 10:29 46.07359 8.69174 38880 ft 431 kts 153°
2026-05-06 10:30 46.02401 8.73974 38846 ft 432 kts 152°
2026-05-06 10:30 45.97419 8.78830 38840 ft 431 kts 152°
2026-05-06 10:31 45.92428 8.83623 38848 ft 432 kts 152°
2026-05-06 10:31 45.87412 8.88391 38860 ft 432 kts 153°
2026-05-06 10:32 45.82419 8.93117 38859 ft 433 kts 153°
2026-05-06 10:32 45.77387 8.97870 38841 ft 433 kts 153°
2026-05-06 10:33 45.72363 9.02606 38856 ft 431 kts 153°
2026-05-06 10:33 45.67360 9.07314 38846 ft 429 kts 153°
2026-05-06 10:34 45.62370 9.11997 38852 ft 428 kts 153°
2026-05-06 10:34 45.57396 9.16655 38849 ft 426 kts 153°
2026-05-06 10:35 45.52418 9.21305 38855 ft 429 kts 153°
2026-05-06 10:35 45.47413 9.25970 38842 ft 430 kts 153°
2026-05-06 10:36 45.42407 9.30630 38849 ft 428 kts 153°
2026-05-06 10:36 45.37438 9.35246 38836 ft 425 kts 154°
2026-05-06 10:37 45.32524 9.39800 38943 ft 424 kts 154°
2026-05-06 10:37 45.27584 9.44367 38907 ft 423 kts 154°
2026-05-06 10:38 45.22651 9.48917 38881 ft 423 kts 154°
2026-05-06 10:38 45.17706 9.53468 38831 ft 424 kts 154°
2026-05-06 10:39 45.12778 9.57996 38844 ft 424 kts 154°
2026-05-06 10:39 45.07818 9.62543 38826 ft 425 kts 154°
2026-05-06 10:40 45.02834 9.67103 38831 ft 428 kts 154°
2026-05-06 10:40 44.97825 9.71675 38853 ft 430 kts 154°
2026-05-06 10:41 44.92796 9.76257 38853 ft 431 kts 154°
2026-05-06 10:41 44.87754 9.80842 38860 ft 431 kts 154°
2026-05-06 10:42 44.82698 9.85430 38858 ft 432 kts 154°
2026-05-06 10:42 44.77645 9.90005 38866 ft 431 kts 154°
2026-05-06 10:43 44.72621 9.94545 38860 ft 431 kts 154°
2026-05-06 10:44 44.65056 10.01363 38879 ft 429 kts 154°
2026-05-06 10:44 44.60036 10.05875 38889 ft 428 kts 154°
2026-05-06 10:45 44.55014 10.10380 38886 ft 428 kts 154°
2026-05-06 10:45 44.49996 10.14871 38903 ft 428 kts 155°
2026-05-06 10:46 44.44745 10.18394 38932 ft 418 kts 166°
2026-05-06 10:46 44.39282 10.21217 38899 ft 418 kts 166°
2026-05-06 10:47 44.34704 10.23580 38915 ft 419 kts 165°
2026-05-06 10:47 44.29276 10.26418 38910 ft 419 kts 165°
2026-05-06 10:48 44.23822 10.29288 38932 ft 420 kts 165°
2026-05-06 10:48 44.18344 10.32169 38959 ft 421 kts 165°
2026-05-06 10:49 44.12849 10.35055 38944 ft 421 kts 165°
2026-05-06 10:49 44.07382 10.37921 38948 ft 420 kts 165°
2026-05-06 10:50 44.01918 10.40779 38956 ft 418 kts 165°
2026-05-06 10:50 43.96472 10.43620 38948 ft 417 kts 165°
2026-05-06 10:51 43.91040 10.46449 38957 ft 416 kts 165°
2026-05-06 10:51 43.85647 10.49252 38943 ft 416 kts 165°
2026-05-06 10:52 43.80226 10.52066 38933 ft 415 kts 165°
2026-05-06 10:52 43.74804 10.54851 38938 ft 414 kts 166°
2026-05-06 10:53 43.69356 10.57404 38898 ft 413 kts 167°
2026-05-06 10:53 43.63896 10.59897 38926 ft 413 kts 167°
2026-05-06 10:54 43.58436 10.62405 38919 ft 413 kts 167°
2026-05-06 10:54 43.53012 10.64910 38915 ft 414 kts 167°
2026-05-06 10:55 43.47540 10.67438 38859 ft 417 kts 167°
2026-05-06 10:55 43.44764 10.68716 38365 ft 422 kts 167°
2026-05-06 10:55 43.41983 10.69999 37747 ft 420 kts 167°
2026-05-06 10:55 43.39219 10.71275 37178 ft 417 kts 167°
2026-05-06 10:56 43.36473 10.72541 36587 ft 415 kts 167°
2026-05-06 10:56 43.33740 10.73800 36102 ft 411 kts 167°
2026-05-06 10:56 43.31044 10.75040 35615 ft 406 kts 167°
2026-05-06 10:56 43.28385 10.76262 35195 ft 401 kts 167°
2026-05-06 10:57 43.25743 10.77474 34758 ft 397 kts 167°
2026-05-06 10:57 43.23136 10.78668 34330 ft 394 kts 167°
2026-05-06 10:57 43.20539 10.79855 33890 ft 391 kts 167°
2026-05-06 10:57 43.17999 10.81016 33401 ft 388 kts 167°
2026-05-06 10:58 43.15452 10.82179 32977 ft 384 kts 168°
2026-05-06 10:58 43.12919 10.83335 32531 ft 381 kts 168°
2026-05-06 10:58 43.10421 10.84474 32104 ft 377 kts 168°
2026-05-06 10:58 43.07938 10.85606 31689 ft 374 kts 168°
2026-05-06 10:59 43.05483 10.86723 31296 ft 370 kts 168°
2026-05-06 10:59 43.03044 10.87832 30896 ft 368 kts 168°
2026-05-06 10:59 43.00623 10.88931 30504 ft 365 kts 168°
2026-05-06 10:59 42.98220 10.90022 30109 ft 363 kts 168°
2026-05-06 11:00 42.95828 10.91107 29664 ft 361 kts 168°
2026-05-06 11:00 42.93458 10.92181 29236 ft 357 kts 168°
2026-05-06 11:00 42.91117 10.93243 28819 ft 353 kts 168°
2026-05-06 11:00 42.88798 10.94292 28414 ft 349 kts 169°
2026-05-06 11:01 42.86504 10.95329 27986 ft 346 kts 169°
2026-05-06 11:01 42.84235 10.96355 27571 ft 343 kts 169°
2026-05-06 11:01 42.81984 10.97375 27171 ft 341 kts 168°
2026-05-06 11:01 42.79863 10.98930 26721 ft 354 kts 148°
2026-05-06 11:02 42.78170 11.01422 26358 ft 364 kts 133°
2026-05-06 11:02 42.76766 11.04291 25967 ft 364 kts 130°
2026-05-06 11:02 42.75438 11.07167 25565 ft 363 kts 129°
2026-05-06 11:02 42.74105 11.10085 25157 ft 362 kts 129°
2026-05-06 11:03 42.72775 11.12977 24765 ft 360 kts 129°
2026-05-06 11:03 42.71438 11.15856 24348 ft 359 kts 130°
2026-05-06 11:03 42.70097 11.18715 23951 ft 358 kts 130°
2026-05-06 11:03 42.68753 11.21565 23532 ft 357 kts 130°
2026-05-06 11:04 42.67414 11.24394 23036 ft 356 kts 130°
2026-05-06 11:04 42.66078 11.27211 22584 ft 353 kts 130°
2026-05-06 11:04 42.64752 11.30003 22170 ft 350 kts 130°
2026-05-06 11:04 42.63435 11.32774 21767 ft 348 kts 130°
2026-05-06 11:05 42.62127 11.35522 21365 ft 346 kts 129°
2026-05-06 11:05 42.60824 11.38253 20967 ft 344 kts 129°
2026-05-06 11:05 42.59529 11.40969 20570 ft 342 kts 129°
2026-05-06 11:05 42.58237 11.43677 20171 ft 340 kts 129°
2026-05-06 11:06 42.56951 11.46368 19783 ft 339 kts 129°
2026-05-06 11:06 42.55669 11.49048 19376 ft 338 kts 129°
2026-05-06 11:06 42.54347 11.51666 18959 ft 334 kts 135°
2026-05-06 11:06 42.52751 11.53877 18425 ft 332 kts 143°
2026-05-06 11:07 42.51016 11.56012 17821 ft 334 kts 144°
2026-05-06 11:07 42.49278 11.58124 17223 ft 337 kts 144°
2026-05-06 11:07 42.47528 11.60253 16649 ft 338 kts 143°
2026-05-06 11:07 42.45784 11.62384 16083 ft 339 kts 143°
2026-05-06 11:08 42.44058 11.64503 15531 ft 339 kts 143°
2026-05-06 11:08 42.42310 11.66652 14974 ft 340 kts 143°
2026-05-06 11:08 42.40563 11.68805 14401 ft 336 kts 143°
2026-05-06 11:08 42.38843 11.70928 13845 ft 330 kts 143°
2026-05-06 11:09 42.37165 11.72998 13263 ft 324 kts 143°
2026-05-06 11:09 42.35517 11.75030 12710 ft 317 kts 143°
2026-05-06 11:09 42.33899 11.77022 12179 ft 311 kts 143°
2026-05-06 11:09 42.32311 11.78975 11671 ft 306 kts 143°
2026-05-06 11:10 42.30752 11.80890 11162 ft 301 kts 143°
2026-05-06 11:10 42.29206 11.82788 10664 ft 299 kts 143°
2026-05-06 11:10 42.27676 11.84664 10188 ft 295 kts 143°
2026-05-06 11:10 42.26166 11.86515 9704 ft 291 kts 144°
2026-05-06 11:11 42.24669 11.88348 9199 ft 290 kts 143°
2026-05-06 11:11 42.23200 11.90146 8703 ft 288 kts 143°
2026-05-06 11:11 42.21725 11.91952 8190 ft 286 kts 143°
2026-05-06 11:11 42.20263 11.93744 7713 ft 281 kts 143°
2026-05-06 11:12 42.18829 11.95494 7278 ft 274 kts 142°
2026-05-06 11:12 42.17429 11.97207 6818 ft 268 kts 143°
2026-05-06 11:12 42.16058 11.98879 6376 ft 263 kts 143°
2026-05-06 11:12 42.14712 12.00512 5914 ft 259 kts 142°
2026-05-06 11:13 42.13380 12.02137 5466 ft 256 kts 142°
2026-05-06 11:13 42.12059 12.03742 5043 ft 256 kts 142°
2026-05-06 11:13 42.10803 12.05409 4734 ft 246 kts 137°
2026-05-06 11:13 42.09718 12.07048 4583 ft 223 kts 137°
2026-05-06 11:14 42.08719 12.08566 4229 ft 210 kts 137°
2026-05-06 11:14 42.07766 12.10005 3790 ft 204 kts 138°
2026-05-06 11:14 42.06841 12.11386 3428 ft 194 kts 137°
2026-05-06 11:14 42.05949 12.12699 3086 ft 184 kts 139°
2026-05-06 11:15 42.05125 12.13920 2912 ft 169 kts 139°
2026-05-06 11:15 42.04372 12.15009 2815 ft 155 kts 139°
2026-05-06 11:15 42.03666 12.16031 2757 ft 146 kts 139°
2026-05-06 11:15 42.02982 12.17024 2731 ft 145 kts 141°
2026-05-06 11:16 42.02289 12.18028 2700 ft 149 kts 139°
2026-05-06 11:16 42.01498 12.18891 2677 ft 145 kts 162°
2026-05-06 11:16 42.00560 12.19362 2593 ft 145 kts 163°
2026-05-06 11:16 41.99578 12.19840 2532 ft 152 kts 165°
2026-05-06 11:17 41.98588 12.20285 2498 ft 144 kts 165°
2026-05-06 11:17 41.97666 12.20683 2485 ft 135 kts 167°
2026-05-06 11:17 41.96772 12.21058 2474 ft 134 kts 167°
2026-05-06 11:17 41.95860 12.21439 2343 ft 143 kts 166°
2026-05-06 11:18 41.94901 12.21840 2179 ft 148 kts 165°
2026-05-06 11:18 41.93918 12.22254 1985 ft 145 kts 163°
2026-05-06 11:18 41.92992 12.22642 1815 ft 133 kts 162°
2026-05-06 11:18 41.92102 12.23014 1606 ft 131 kts 162°
2026-05-06 11:19 41.91263 12.23365 1411 ft 125 kts 162°
2026-05-06 11:19 41.90434 12.23718 1289 ft 122 kts 163°
2026-05-06 11:19 41.89627 12.24046 1120 ft 120 kts 164°
2026-05-06 11:19 41.88824 12.24377 952 ft 121 kts 163°
2026-05-06 11:20 41.88006 12.24735 762 ft 128 kts 162°
2026-05-06 11:20 41.87138 12.25091 646 ft 132 kts 162°
2026-05-06 11:20 41.86253 12.25465 456 ft 134 kts 162°
2026-05-06 11:20 41.85367 12.25830 241 ft 131 kts 163°
2026-05-06 11:21 41.84518 12.26183 53 ft 126 kts 162°
2026-05-06 11:21 41.83738 12.26511 16 ft 104 kts 162°
2026-05-06 11:21 41.83168 12.26750 9 ft 73 kts 162°
2026-05-06 11:21 41.82732 12.26932 13 ft 58 kts 162°
2026-05-06 11:22 41.82385 12.27077 9 ft 47 kts 163°
2026-05-06 11:22 41.82106 12.27140 10 ft 34 kts 181°
2026-05-06 11:22 41.81909 12.27094 10 ft 27 kts 192°
2026-05-06 11:22 41.81751 12.27050 10 ft 20 kts 187°
2026-05-06 11:23 41.81618 12.27073 12 ft 19 kts 161°
2026-05-06 11:23 41.81492 12.27127 11 ft 19 kts 163°
2026-05-06 11:23 41.81372 12.27176 11 ft 18 kts 162°
2026-05-06 11:23 41.81255 12.27226 11 ft 17 kts 163°
2026-05-06 11:24 41.81141 12.27274 11 ft 17 kts 162°
2026-05-06 11:24 41.81034 12.27319 11 ft 16 kts 162°
2026-05-06 11:24 41.80927 12.27352 11 ft 15 kts 181°
2026-05-06 11:24 41.80821 12.27331 11 ft 16 kts 189°
2026-05-06 11:25 41.80712 12.27301 11 ft 17 kts 201°
2026-05-06 11:25 41.80649 12.27199 11 ft 14 kts 250°
2026-05-06 11:25 41.80611 12.27063 12 ft 17 kts 250°
2026-05-06 11:25 41.80569 12.26909 12 ft 19 kts 250°
2026-05-06 11:26 41.80522 12.26739 13 ft 20 kts 250°
2026-05-06 11:26 41.80473 12.26562 17 ft 21 kts 250°
2026-05-06 11:26 41.80427 12.26401 14 ft 14 kts 241°
2026-05-06 11:26 41.80344 12.26372 15 ft 13 kts 160°
2026-05-06 11:27 41.80259 12.26411 13 ft 13 kts 169°
2026-05-06 11:27 41.80175 12.26382 14 ft 13 kts 205°
2026-05-06 11:27 41.80097 12.26333 15 ft 12 kts 204°
2026-05-06 11:27 41.80019 12.26285 13 ft 13 kts 205°
2026-05-06 11:28 41.79935 12.26234 13 ft 14 kts 205°
2026-05-06 11:28 41.79845 12.26178 13 ft 15 kts 205°
2026-05-06 11:28 41.79752 12.26109 13 ft 15 kts 214°
2026-05-06 11:28 41.79658 12.26047 14 ft 14 kts 205°
2026-05-06 11:29 41.79583 12.25999 14 ft 8 kts 205°
2026-05-06 11:29 41.79572 12.25964 13 ft 4 kts 290°
2026-05-06 11:29 41.79583 12.25931 13 ft 3 kts 295°
2026-05-06 11:29 41.79588 12.25918 13 ft 1 kts 295°
2026-05-06 11:30 41.79588 12.25917 13 ft 0 kts 295°